• In Czech Republic
  • List of Countries
  • For 7 days
  • Water Temperature
  • Satellite Maps
  • Weather Map
  • Weather Widgets
  • user-avatar
    Login

    Hourly Weather Wersele

    Today, 20 April, Friday

    Time Temperature Precipitation Wind Pressure Humidity
    00:00 +5°C° 0 mm 3 mps 746 mmHg 83%
    01:00 +4°C° 0 mm 3 mps 747 mmHg 86%
    02:00 +4°C° 0 mm 2 mps 747 mmHg 89%
    03:00 +4°C° 0 mm 2 mps 747 mmHg 89%
    04:00 +4°C° 0 mm 2 mps 746 mmHg 90%
    05:00 +3°C° 0 mm 2 mps 746 mmHg 91%
    06:00 +5°C° 0 mm 2 mps 746 mmHg 84%
    07:00 +6°C° 0 mm 2 mps 747 mmHg 78%
    08:00 +8°C° 0 mm 2 mps 747 mmHg 72%
    09:00 +10°C° 0 mm 2 mps 746 mmHg 65%
    10:00 +13°C° 0 mm 2 mps 746 mmHg 57%
    11:00 +15°C° 0 mm 2 mps 746 mmHg 50%
    12:00 +16°C° 0 mm 3 mps 746 mmHg 49%
    13:00 +17°C° 0 mm 3 mps 746 mmHg 47%
    14:00 +18°C° 0 mm 3 mps 745 mmHg 45%
    15:00 +18°C° 0 mm 3 mps 745 mmHg 47%
    16:00 +18°C° 0 mm 3 mps 744 mmHg 49%
    17:00 +18°C° 0 mm 4 mps 743 mmHg 51%
    18:00 +17°C° 0 mm 3 mps 743 mmHg 58%
    19:00 +14°C° 0 mm 3 mps 742 mmHg 65%
    20:00 +12°C° 0 mm 3 mps 742 mmHg 72%
    21:00 +12°C° 0 mm 3 mps 741 mmHg 71%
    22:00 +12°C° 0 mm 4 mps 740 mmHg 71%
    23:00 +11°C° 0 mm 4 mps 740 mmHg 70%

    Tomorrow, 21 April, Saturday

    Time Temperature Precipitation Wind Pressure Humidity
    00:00 +10°C° 0 mm 5 mps 739 mmHg 70%
    01:00 +12°C° 0 mm 5 mps 739 mmHg 70%
    02:00 +12°C° 0 mm 5 mps 738 mmHg 69%
    03:00 +10°C° 0 mm 5 mps 737 mmHg 72%
    04:00 +10°C° 0 mm 5 mps 736 mmHg 74%
    05:00 +10°C° 0 mm 5 mps 736 mmHg 77%
    06:00 +11°C° 0 mm 6 mps 736 mmHg 77%
    07:00 +11°C° 0 mm 7 mps 735 mmHg 78%
    08:00 +12°C° 0 mm 7 mps 735 mmHg 79%
    09:00 +12°C° 0 mm 7 mps 735 mmHg 73%
    10:00 +13°C° 0 mm 8 mps 736 mmHg 66%
    11:00 +13°C° 0 mm 8 mps 736 mmHg 60%
    12:00 +13°C° 0 mm 8 mps 736 mmHg 56%
    13:00 +15°C° 0 mm 8 mps 736 mmHg 52%
    14:00 +15°C° 0 mm 8 mps 736 mmHg 48%
    15:00 +14°C° 0 mm 7 mps 737 mmHg 50%
    16:00 +14°C° 0 mm 7 mps 737 mmHg 53%
    17:00 +12°C° 0 mm 7 mps 737 mmHg 56%
    18:00 +10°C° 0 mm 6 mps 737 mmHg 62%
    19:00 +9°C° 0 mm 5 mps 737 mmHg 68%
    20:00 +7°C° 0 mm 4 mps 737 mmHg 74%
    21:00 +6°C° 0 mm 4 mps 737 mmHg 76%
    22:00 +5°C° 0 mm 4 mps 737 mmHg 78%
    23:00 +4°C° 0 mm 4 mps 738 mmHg 81%

    Day after tomorrow, 22 April, Sunday

    Time Temperature Precipitation Wind Pressure Humidity
    00:00 +4°C° 0 mm 4 mps 738 mmHg 82%
    01:00 +4°C° 0 mm 3 mps 737 mmHg 83%
    02:00 +3°C° 0 mm 3 mps 737 mmHg 85%
    03:00 +3°C° 0 mm 3 mps 737 mmHg 86%
    04:00 +3°C° 0 mm 3 mps 737 mmHg 87%
    05:00 +3°C° 0 mm 3 mps 737 mmHg 88%
    06:00 +4°C° 0 mm 3 mps 737 mmHg 83%
    07:00 +5°C° 0 mm 3 mps 738 mmHg 78%
    08:00 +7°C° 0 mm 3 mps 738 mmHg 73%
    09:00 +9°C° 0 mm 3 mps 738 mmHg 67%
    10:00 +11°C° 0 mm 4 mps 738 mmHg 61%
    11:00 +13°C° 0 mm 4 mps 738 mmHg 54%
    12:00 +14°C° 0 mm 4 mps 738 mmHg 52%
    13:00 +14°C° 0 mm 5 mps 738 mmHg 49%
    14:00 +15°C° 0 mm 5 mps 737 mmHg 47%
    15:00 +15°C° 0 mm 5 mps 737 mmHg 49%
    16:00 +14°C° 0 mm 5 mps 737 mmHg 51%
    17:00 +13°C° 0 mm 5 mps 737 mmHg 54%
    18:00 +12°C° 0 mm 4 mps 737 mmHg 61%
    19:00 +10°C° 0 mm 4 mps 737 mmHg 68%
    20:00 +8°C° 0 mm 3 mps 737 mmHg 75%
    21:00 +7°C° 0 mm 3 mps 737 mmHg 79%
    22:00 +6°C° 0 mm 2 mps 737 mmHg 82%
    23:00 +5°C° 0 mm 2 mps 737 mmHg 86%

    23 April, Monday

    Time Temperature Precipitation Wind Pressure Humidity
    00:00 +4°C° 0 mm 2 mps 737 mmHg 87%
    01:00 +5°C° 0 mm 1 mps 737 mmHg 87%
    02:00 +4°C° 0 mm 1 mps 737 mmHg 88%
    03:00 +4°C° 0 mm 1 mps 737 mmHg 88%
    04:00 +4°C° 0 mm 1 mps 737 mmHg 88%
    05:00 +4°C° 0 mm 1 mps 737 mmHg 88%
    06:00 +5°C° 0 mm 1 mps 737 mmHg 81%
    07:00 +7°C° 0 mm 1 mps 737 mmHg 74%
    08:00 +7°C° 0 mm 2 mps 737 mmHg 67%
    09:00 +9°C° 0 mm 2 mps 736 mmHg 61%
    10:00 +12°C° 0 mm 2 mps 736 mmHg 55%
    11:00 +13°C° 0 mm 3 mps 736 mmHg 49%
    12:00 +14°C° 0 mm 3 mps 735 mmHg 47%
    13:00 +16°C° 0 mm 3 mps 735 mmHg 45%
    14:00 +15°C° 0 mm 4 mps 734 mmHg 44%
    15:00 +16°C° 0 mm 3 mps 733 mmHg 48%
    16:00 +16°C° 0 mm 3 mps 733 mmHg 52%
    17:00 +16°C° 0 mm 3 mps 732 mmHg 57%
    18:00 +13°C° 0.6 mm 3 mps 731 mmHg 64%
    19:00 +12°C° 0.6 mm 4 mps 731 mmHg 72%
    20:00 +11°C° 0.6 mm 4 mps 730 mmHg 80%
    21:00 +11°C° 2.6 mm 4 mps 730 mmHg 84%
    22:00 +9°C° 2.6 mm 5 mps 729 mmHg 88%
    23:00 +9°C° 2.6 mm 5 mps 729 mmHg 92%

    24 April, Tuesday

    Time Temperature Precipitation Wind Pressure Humidity
    00:00 +8°C° 0.6 mm 6 mps 729 mmHg 91%
    01:00 +8°C° 0.6 mm 6 mps 729 mmHg 90%
    02:00 +6°C° 0.6 mm 7 mps 729 mmHg 89%
    03:00 +5°C° 0 mm 7 mps 729 mmHg 89%
    04:00 +4°C° 0 mm 6 mps 730 mmHg 89%
    05:00 +3°C° 0 mm 6 mps 730 mmHg 89%
    06:00 +4°C° 0 mm 6 mps 731 mmHg 87%
    07:00 +5°C° 0 mm 7 mps 731 mmHg 85%
    08:00 +5°C° 0 mm 7 mps 731 mmHg 84%
    09:00 +5°C° 0.1 mm 7 mps 732 mmHg 83%
    10:00 +5°C° 0.1 mm 7 mps 732 mmHg 82%
    11:00 +5°C° 0.1 mm 7 mps 732 mmHg 81%
    12:00 +5°C° 0.1 mm 6 mps 733 mmHg 80%
    13:00 +7°C° 0.1 mm 6 mps 733 mmHg 78%
    14:00 +7°C° 0.1 mm 6 mps 733 mmHg 77%
    15:00 +7°C° 0.1 mm 6 mps 733 mmHg 76%
    16:00 +8°C° 0.1 mm 6 mps 733 mmHg 74%
    17:00 +8°C° 0.1 mm 5 mps 733 mmHg 73%
    18:00 +8°C° 0.2 mm 5 mps 733 mmHg 78%
    19:00 +7°C° 0.2 mm 4 mps 733 mmHg 84%
    20:00 +7°C° 0.2 mm 3 mps 733 mmHg 89%
    21:00 +7°C° 0 mm 3 mps 733 mmHg 91%
    22:00 +5°C° 0 mm 3 mps 733 mmHg 93%
    23:00 +5°C° 0 mm 3 mps 733 mmHg 94%

    25 April, Wednesday

    Time Temperature Precipitation Wind Pressure Humidity
    00:00 +4°C° 0 mm 3 mps 733 mmHg 95%
    01:00 +4°C° 0 mm 3 mps 733 mmHg 95%
    02:00 +3°C° 0 mm 3 mps 733 mmHg 96%
    03:00 +4°C° 0 mm 3 mps 733 mmHg 95%
    04:00 +4°C° 0 mm 3 mps 732 mmHg 95%
    05:00 +4°C° 0 mm 3 mps 732 mmHg 95%
    06:00 +5°C° 0.1 mm 4 mps 731 mmHg 94%
    07:00 +6°C° 0.1 mm 4 mps 731 mmHg 92%
    08:00 +7°C° 0.1 mm 5 mps 730 mmHg 91%
    09:00 +8°C° 0.8 mm 5 mps 730 mmHg 91%
    10:00 +8°C° 0.8 mm 5 mps 730 mmHg 91%
    11:00 +9°C° 0.8 mm 6 mps 729 mmHg 91%
    12:00 +9°C° 1.3 mm 6 mps 729 mmHg 91%
    13:00 +9°C° 1.3 mm 5 mps 729 mmHg 91%
    14:00 +10°C° 1.3 mm 5 mps 729 mmHg 91%
    15:00 +10°C° 0.3 mm 6 mps 729 mmHg 88%
    16:00 +10°C° 0.3 mm 6 mps 729 mmHg 85%
    17:00 +10°C° 0.3 mm 6 mps 729 mmHg 82%
    18:00 +9°C° 0.1 mm 5 mps 729 mmHg 84%
    19:00 +7°C° 0.1 mm 5 mps 729 mmHg 86%
    20:00 +6°C° 0.1 mm 4 mps 729 mmHg 88%
    21:00 +5°C° 0 mm 4 mps 729 mmHg 88%
    22:00 +4°C° 0 mm 4 mps 729 mmHg 89%
    23:00 +3°C° 0 mm 4 mps 729 mmHg 89%
    Show more